GW5531 Weather Reports


Display with metric or nautical units.
time (UTC)temp
F
wind
direction
speed
MPH
gust
MPH
rain 1hr
in
rain 24hr
in
rain mn
in
humidity
%
barometer
mb
20260502220013 61 261 0.0 0.0 0.00 0.00 0.00 34 1016.8
20260502215014 61 283 0.0 0.0 0.00 0.00 0.00 34 1017.0
20260502214013 61 258 0.0 0.0 0.00 0.00 0.00 33 1017.1
20260502213014 61 246 0.0 0.0 0.00 0.00 0.00 35 1017.2
20260502212012 59 284 0.0 0.0 0.00 0.00 0.00 37 1017.3
20260502211013 58 266 0.0 0.0 0.00 0.00 0.00 37 1017.5
20260502205012 58 276 0.0 0.0 0.00 0.00 0.00 37 1017.9
20260502204013 58 272 0.0 0.0 0.00 0.00 0.00 36 1018.0
20260502203013 59 251 0.0 0.0 0.00 0.00 0.00 36 1018.2
20260502202013 58 258 0.0 0.0 0.00 0.00 0.00 36 1018.3
20260502200012 57 275 0.0 0.0 0.00 0.00 0.00 37 1018.5
20260502194013 57 249 0.0 0.0 0.00 0.00 0.00 39 1019.1
20260502193012 57 212 0.0 0.0 0.00 0.00 0.00 37 1019.3
20260502192111 56 250 0.0 0.0 0.00 0.00 0.00 39 1019.3
20260502191114 55 249 0.0 0.0 0.00 0.00 0.00 39 1019.6
20260502190212 55 251 0.0 0.0 0.00 0.00 0.00 38 1019.6
20260502185311 55 206 0.0 0.0 0.00 0.00 0.00 38 1019.9
20260502183412 54 262 0.0 0.0 0.00 0.00 0.00 37 1020.1
20260502182413 54 228 0.0 0.0 0.00 0.00 0.00 37 1020.3
20260502163812 52 219 0.0 0.0 0.00 0.00 0.00 36 1022.3
20260502162911 52 269 0.0 0.0 0.00 0.00 0.00 35 1022.3
20260502161913 51 283 0.0 0.0 0.00 0.00 0.00 37 1022.4
20260502160912 51 249 0.0 0.0 0.00 0.00 0.00 38 1022.4
20260502151012 50 301 0.0 0.0 0.00 0.00 0.00 40 1023.5
20260502130314 39 180 0.0 0.0 0.00 0.00 0.00 89 1024.0
20260502122512 37 202 0.0 0.0 0.00 0.00 0.00 96 1024.0
20260502121513 35 247 0.0 0.0 0.00 0.00 0.00 97 1023.8
20260502120514 34 247 0.0 0.0 0.00 0.00 0.00 96 1023.7
20260502115512 32 225 0.0 0.0 0.00 0.00 0.00 97 1023.6
20260502113611 31 225 0.0 0.0 0.00 0.00 0.00 96 1023.4
20260502112710 30 225 0.0 0.0 0.00 0.00 0.00 97 1023.3
20260502105812 31 225 0.0 0.0 0.00 0.00 0.00 95 1023.1
20260502104814 31 157 0.0 0.0 0.00 0.00 0.00 96 1023.3
20260502103912 31 157 0.0 0.0 0.00 0.00 0.00 96 1023.3
20260502102913 31 157 0.0 0.0 0.00 0.00 0.00 96 1023.1
20260502101913 31 157 0.0 0.0 0.00 0.00 0.00 95 1023.3
20260502100913 31 157 0.0 0.0 0.00 0.00 0.00 94 1023.3
20260502090912 30 157 0.0 0.0 0.00 0.00 0.00 92 1023.3
20260502070813 31 157 0.0 0.0 0.00 0.00 0.00 88 1023.9
20260502065811 31 157 0.0 0.0 0.00 0.00 0.00 86 1024.0
20260502064811 31 157 0.0 0.0 0.00 0.00 0.00 86 1024.1
20260502063812 31 157 0.0 0.0 0.00 0.00 0.00 85 1024.2
20260502062815 32 157 0.0 0.0 0.00 0.00 0.00 87 1024.2
20260502061813 32 157 0.0 0.0 0.00 0.00 0.00 87 1024.2
20260502060812 32 180 0.0 0.0 0.00 0.00 0.00 89 1024.3
20260502055911 33 180 0.0 0.0 0.00 0.00 0.00 87 1024.2
20260502054011 33 180 0.0 0.0 0.00 0.00 0.00 85 1024.3
20260502052110 33 180 0.0 0.0 0.00 0.00 0.00 83 1024.5
20260502051113 32 180 0.0 0.0 0.00 0.00 0.00 81 1024.3
20260502050211 33 180 0.0 0.0 0.00 0.00 0.00 81 1024.3
20260502045214 33 180 0.0 0.0 0.00 0.00 0.00 81 1024.4
20260502044215 34 180 0.0 0.0 0.00 0.00 0.00 82 1024.5
20260502043212 34 180 0.0 0.0 0.00 0.00 0.00 80 1024.5
20260502042215 34 180 0.0 0.0 0.00 0.00 0.00 79 1024.5
20260502041215 33 180 0.0 0.0 0.00 0.00 0.00 74 1024.5
20260502040314 34 180 0.0 0.0 0.00 0.00 0.00 72 1024.5
20260502034314 35 180 0.0 0.0 0.00 0.00 0.00 67 1024.6
20260502033313 36 180 0.0 0.0 0.00 0.00 0.00 68 1024.7
20260502032412 36 180 0.0 0.0 0.00 0.00 0.00 65 1024.7
20260502031415 37 180 0.0 0.0 0.00 0.00 0.00 64 1024.7
20260502030415 36 180 0.0 0.0 0.00 0.00 0.00 60 1024.7
20260502025415 38 180 0.0 0.0 0.00 0.00 0.00 60 1024.7
20260502024416 38 180 0.0 0.0 0.00 0.00 0.00 57 1024.8
20260502023415 39 180 0.0 0.0 0.00 0.00 0.00 56 1024.8
20260502022415 39 157 0.0 0.0 0.00 0.00 0.00 56 1024.8
20260502021414 39 157 0.0 0.0 0.00 0.00 0.00 55 1024.9
20260502020415 40 157 0.0 0.0 0.00 0.00 0.00 53 1024.7
20260502015512 40 157 0.0 0.0 0.00 0.00 0.00 52 1024.8
20260502013613 42 175 0.0 0.0 0.00 0.00 0.00 52 1024.6
20260502012614 42 157 0.0 0.0 0.00 0.00 0.00 51 1024.5
20260502011713 43 159 0.0 0.0 0.00 0.00 0.00 50 1024.6
20260502010713 43 180 0.0 0.0 0.00 0.00 0.00 50 1024.5
20260502005712 43 158 0.0 0.0 0.00 0.00 0.00 48 1024.6
20260502004714 44 157 0.0 0.0 0.00 0.00 0.00 47 1024.5
20260502003715 44 180 0.0 0.0 0.00 0.00 0.00 47 1024.6
20260502002712 45 180 0.0 0.0 0.00 0.00 0.00 48 1024.5
20260502001714 45 157 0.0 0.0 0.00 0.00 0.00 48 1024.3
20260501235815 45 157 0.0 0.0 0.00 0.00 0.00 48 1024.4
20260501233012 47 177 0.0 0.0 0.00 0.00 0.00 47 1024.4
20260501232014 46 172 0.0 0.0 0.00 0.00 0.00 45 1024.4
20260501230013 46 167 0.0 0.0 0.00 0.00 0.00 45 1024.6
20260501225014 47 157 0.0 0.0 0.00 0.00 0.00 44 1024.6
20260501224112 48 159 0.0 0.0 0.00 0.00 0.00 44 1024.6
20260501223113 48 180 0.0 0.0 0.00 0.00 0.00 43 1024.6
20260501222114 49 180 0.0 0.0 0.00 0.00 0.00 43 1024.5
20260501221115 49 180 0.0 0.0 0.00 0.00 0.00 43 1024.5